Weather in Bolshaya Oka

Russia / Republic of Bashkortostan     56°04′47″N   58°11′56″E
temp.,
°C
wind,
m/s
gust,
m/s
humid.,
%
clouds,
%
prec.,
mm/h
press.,
hPa
HPBL,
m
3 march, wed
wed323:00−11ssw51388100 0.3 1001540
02:00−9ssw51290100 0.0 1000524
05:00−8ssw5128890 0.0 999275
08:00−10ssw349229 0.0 99965
11:00−3sw598859 0.0 999708
14:00−1wsw5789100 0.2 999809
17:00−2sw5886100 0.5 999675
20:00−6ssw3690100 0.0 999113
4 march, thu
thu423:00−5ssw3794100 0.1 999195
02:00−6ssw3694100 0.1 998121
05:00−7sw4794100 0.1 999167
08:00−10w5109297 0.1 999300
11:00−8wsw5108784 0.1 1001583
14:00−6wsw698393 0.0 1000933
17:00−6sw6108697 0.1 999817
20:00−9s4108999 0.0 998267
5 march, fri
fri523:00−8s5149399 0.1 996812
02:00−6ssw71590100 0.4 993612
05:00−6wsw6159089 0.4 994857
08:00−6wsw7158765 0.0 998528
11:00−5wsw6118674 0.0 1000772
14:00−3wsw5884100 0.0 1000848
17:00−3w2493100 0.2 1000351
20:00−6nnw2297100 0.4 100124
6 march, sat
sat623:00−7nw3795100 0.9 1002229
02:00−12nw599199 0.1 1005382
05:00−19w489550 0.1 1010145
08:00−19w489420 0.0 1012172
11:00−12w6118928 0.0 1012499
14:00−9wsw698492 0.0 1012827
17:00−8wsw478496 0.0 1011797
20:00−13ssw339198 0.0 101124
7 march, sun
sun723:00−15sse129199 0.0 101020
02:00−16e1190100 0.0 100720
05:00−16n118775 0.0 100620
08:00−15nnw1194100 0.1 100520
11:00−11w3589100 0.6 1005404
14:00−9w5785100 0.1 1006786
17:00−10w6783100 0.1 1007857
20:00−18wsw479359 0.0 1010103